Retour au catalogue

CZ-6A DEB

ActifSSO
NORAD 56687·DEBRIS·🇨🇳 China

Lancé Nov 11, 2022 depuis Taiyuan Satellite Launch Center

Loading…

Prochains Passages (prochaines 24 heures)

TLE

FraisSource: Space-Track

Époque: Sep 11, 2026, 09:19 UTC

1 56687U 22151AHP 26254.38856306  .00000242  00000-0  19980-3 0  9999
2 56687  98.9378 223.4815 0123308 205.7798 153.7186 13.94681318170157

Suivez CZ-6A DEB en temps réel avec AllMySat

Download on the App Store